TimePST,TemperatureF,Dew PointF,Humidity,Sea Level PressureIn,VisibilityMPH,Wind Direction,Wind SpeedMPH,Gust SpeedMPH,PrecipitationIn,Events,Conditions,WindDirDegrees,DateUTC
12:06 AM,21.2,19.4,93,30.19,10.0,NW,4.6,-,N/A,,Mostly Cloudy,320,2013-02-14 08:06:00
12:17 AM,21.2,19.4,93,30.20,10.0,NW,4.6,-,N/A,,Overcast,320,2013-02-14 08:17:00
12:25 AM,21.2,19.4,93,30.20,10.0,NW,4.6,-,N/A,,Mostly Cloudy,320,2013-02-14 08:25:00
12:53 AM,21.9,19.9,92,30.31,10.0,Variable,5.8,-,N/A,,Scattered Clouds,0,2013-02-14 08:53:00
1:53 AM,21.0,19.0,92,30.33,10.0,NW,3.5,-,N/A,,Clear,310,2013-02-14 09:53:00
2:18 AM,21.2,19.4,93,30.20,8.0,Variable,3.5,-,N/A,,Partly Cloudy,0,2013-02-14 10:18:00
2:53 AM,21.0,18.0,88,30.34,10.0,NW,5.8,-,N/A,,Partly Cloudy,310,2013-02-14 10:53:00
3:53 AM,21.0,18.0,88,30.36,10.0,NW,8.1,-,N/A,,Clear,310,2013-02-14 11:53:00
4:51 AM,19.4,17.6,93,30.22,10.0,NNW,4.6,-,N/A,,Partly Cloudy,330,2013-02-14 12:51:00
4:53 AM,19.9,18.0,92,30.38,10.0,NNW,3.5,-,N/A,,Partly Cloudy,330,2013-02-14 12:53:00
5:53 AM,21.0,18.0,88,30.38,10.0,Calm,Calm,-,N/A,,Mostly Cloudy,0,2013-02-14 13:53:00
6:20 AM,21.2,19.4,93,30.23,10.0,WNW,3.5,-,N/A,,Overcast,290,2013-02-14 14:20:00
6:53 AM,21.9,19.0,89,30.39,4.0,WNW,3.5,-,N/A,,Overcast,300,2013-02-14 14:53:00
7:06 AM,21.2,19.4,93,30.24,1.8,NW,4.6,-,N/A,,Overcast,320,2013-02-14 15:06:00
7:15 AM,21.2,19.4,93,30.25,1.2,NW,4.6,-,N/A,,Overcast,320,2013-02-14 15:15:00
7:30 AM,21.2,19.4,93,30.25,1.8,NW,4.6,-,N/A,,Overcast,320,2013-02-14 15:30:00
7:48 AM,21.2,19.4,93,30.26,1.0,NNW,5.8,-,N/A,,Mist,330,2013-02-14 15:48:00
7:53 AM,21.9,19.0,89,30.41,1.2,NNW,5.8,-,N/A,,Overcast,330,2013-02-14 15:53:00
8:07 AM,23.0,19.4,86,30.26,0.8,NNW,4.6,-,N/A,,Mist,330,2013-02-14 16:07:00
8:27 AM,23.0,19.4,86,30.26,1.0,Variable,4.6,-,N/A,,Mist,0,2013-02-14 16:27:00
8:45 AM,24.8,19.4,80,30.26,0.5,Variable,5.8,-,N/A,Fog,Light Freezing Fog,0,2013-02-14 16:45:00
8:53 AM,24.1,21.0,88,30.40,0.5,NNW,4.6,-,N/A,Fog,Light Freezing Fog,330,2013-02-14 16:53:00
9:11 AM,24.8,19.4,80,30.27,1.5,Variable,5.8,-,N/A,,Overcast,0,2013-02-14 17:11:00
9:13 AM,24.8,19.4,80,30.27,3.0,Variable,6.9,-,N/A,,Overcast,0,2013-02-14 17:13:00
9:46 AM,24.8,21.2,86,30.28,10.0,NW,8.1,-,N/A,,Overcast,320,2013-02-14 17:46:00
9:53 AM,25.0,21.0,85,30.42,10.0,Variable,6.9,-,N/A,,Overcast,0,2013-02-14 17:53:00
10:53 AM,26.1,23.0,88,30.44,10.0,Calm,Calm,-,N/A,,Mostly Cloudy,0,2013-02-14 18:53:00
11:18 AM,26.6,21.2,80,30.30,10.0,NNW,4.6,-,N/A,,Mostly Cloudy,330,2013-02-14 19:18:00
11:53 AM,28.0,23.0,81,30.44,10.0,Variable,4.6,-,N/A,,Overcast,0,2013-02-14 19:53:00
12:53 PM,26.1,21.9,84,30.45,10.0,Variable,4.6,-,N/A,,Overcast,0,2013-02-14 20:53:00
1:31 PM,24.8,21.2,86,30.29,10.0,Variable,4.6,-,N/A,,Overcast,0,2013-02-14 21:31:00
1:40 PM,24.8,21.2,86,30.29,10.0,Variable,5.8,-,N/A,,Overcast,0,2013-02-14 21:40:00
1:53 PM,25.0,21.0,85,30.45,10.0,Variable,5.8,-,N/A,,Overcast,0,2013-02-14 21:53:00
2:02 PM,24.8,21.2,86,30.30,10.0,Variable,5.8,-,N/A,,Overcast,0,2013-02-14 22:02:00
2:13 PM,24.8,21.2,86,30.30,-9999.0,Variable,3.5,-,N/A,,Overcast,0,2013-02-14 22:13:00
2:22 PM,24.8,21.2,86,30.30,10.0,Calm,Calm,-,N/A,,Overcast,0,2013-02-14 22:22:00
2:53 PM,24.1,21.0,88,30.46,10.0,Variable,3.5,-,N/A,,Overcast,0,2013-02-14 22:53:00
3:31 PM,24.8,21.2,86,30.31,10.0,NW,4.6,-,N/A,,Overcast,310,2013-02-14 23:31:00
3:53 PM,24.1,21.9,91,30.47,10.0,Variable,4.6,-,N/A,,Overcast,0,2013-02-14 23:53:00
4:33 PM,23.0,21.2,93,30.32,10.0,Variable,3.5,-,N/A,,Overcast,0,2013-02-15 00:33:00
4:48 PM,23.0,21.2,93,30.32,10.0,NW,4.6,-,N/A,,Overcast,310,2013-02-15 00:48:00
4:49 PM,23.0,21.9,96,30.49,10.0,NW,4.6,-,N/A,,Overcast,310,2013-02-15 00:49:00
5:03 PM,23.0,21.2,93,30.32,10.0,Variable,5.8,-,N/A,,Overcast,0,2013-02-15 01:03:00
5:16 PM,23.0,21.2,93,30.32,2.0,Variable,4.6,-,N/A,,Overcast,0,2013-02-15 01:16:00
5:20 PM,23.0,21.2,93,30.32,1.2,NW,6.9,-,N/A,,Overcast,310,2013-02-15 01:20:00
5:28 PM,23.0,21.2,93,30.32,0.8,Variable,5.8,-,N/A,,Overcast,0,2013-02-15 01:28:00
5:39 PM,24.8,21.2,86,30.32,0.5,NNW,3.5,-,N/A,Fog,Light Freezing Fog,330,2013-02-15 01:39:00
5:53 PM,24.1,23.0,96,30.47,0.5,Variable,4.6,-,N/A,Fog,Light Freezing Fog,0,2013-02-15 01:53:00
6:43 PM,24.8,21.2,86,30.32,1.2,Variable,4.6,-,N/A,,Overcast,0,2013-02-15 02:43:00
6:51 PM,24.8,21.2,86,30.32,1.5,Variable,5.8,-,N/A,,Overcast,0,2013-02-15 02:51:00
6:53 PM,24.1,21.9,91,30.48,2.0,WNW,8.1,-,N/A,,Overcast,300,2013-02-15 02:53:00
7:05 PM,24.8,21.2,86,30.32,8.0,Variable,6.9,-,N/A,,Overcast,0,2013-02-15 03:05:00
7:14 PM,24.8,21.2,86,30.33,8.0,Variable,5.8,-,N/A,,Overcast,0,2013-02-15 03:14:00
7:53 PM,24.1,21.9,91,30.49,10.0,Variable,4.6,-,N/A,,Overcast,0,2013-02-15 03:53:00
8:53 PM,24.1,21.9,91,30.50,10.0,NW,10.4,-,N/A,,Overcast,310,2013-02-15 04:53:00
9:25 PM,24.8,21.2,86,30.36,10.0,Variable,4.6,-,N/A,,Overcast,0,2013-02-15 05:25:00
9:53 PM,24.1,21.9,91,30.50,2.5,NNW,4.6,-,N/A,,Overcast,340,2013-02-15 05:53:00
10:01 PM,24.8,21.2,86,30.35,1.5,NW,6.9,-,N/A,,Overcast,320,2013-02-15 06:01:00
10:10 PM,24.8,21.2,86,30.35,3.0,NW,8.1,-,N/A,,Overcast,310,2013-02-15 06:10:00
10:22 PM,24.8,21.2,86,30.36,10.0,NW,5.8,-,N/A,,Overcast,320,2013-02-15 06:22:00
10:53 PM,24.1,21.9,91,30.51,10.0,NW,6.9,-,N/A,,Overcast,320,2013-02-15 06:53:00
11:31 PM,24.8,21.2,86,30.37,10.0,NW,4.6,-,N/A,,Overcast,320,2013-02-15 07:31:00
11:53 PM,24.1,21.9,91,30.50,2.5,Variable,5.8,-,N/A,,Overcast,0,2013-02-15 07:53:00